Regional Weather Roundup
Issued by NWS

Home | Current Version | Previous Version | Text Only | Print | Product List | Glossary Off
Versions: 1 2 3 4 5 6 7 8 9 10 11 12 13 14 15 16 17 18 19 20 21 22 23 24 25 26 27 28 29 30 31 32 33 34 35 36 37 38 39 40 41 42 43 44 45 46 47 48 49 50

000
ASUS43 KMPX 170410
RWRMN
WEATHER ROUNDUP FOR MINNESOTA
NATIONAL WEATHER SERVICE TWIN CITIES/CHANHASSEN MN
1100 PM CDT WED APR 16 2014


NOTE: "FAIR" INDICATES FEW OR NO CLOUDS BELOW 12,000 FEET WITH NO
SIGNIFICANT WEATHER AND/OR OBSTRUCTIONS TO VISIBILITY. N/A MEANS
CURRENT SKY AND/OR WEATHER CONDITIONS ARE NOT AVAILABLE.

MNZ060>063-068>070-170500-
   Twin Cities Metro

CITY           SKY/WX    TMP DP  RH WIND       PRES   REMARKS
TWIN CITIES    LGT SNOW  31  31 100 N15       29.94R FOG     WCI  20
ST PAUL        LGT RAIN  35  33  92 N12       29.95R FOG     WCI  27
CRYSTAL        SNOW      29  27  92 N16G23    29.96R VSB 1/2 WCI  17
BLAINE         LGT SNOW  30  30 100 N17G23    29.97R VSB 3/4 WCI  18
EDEN PRAIRIE   LGT SNOW  30  28  93 N14G21    29.92S VSB 3/4 WCI  20
LAKEVILLE      RAIN      34  34 100 N10       29.89S WCI  26
SOUTH ST PAUL  LGT RAIN  38  37  96 N9        29.92S
LAKE ELMO      MIX PCPN  36  34  93 NE8       29.94R
$$
MNZ001>005-007-008-013>017-022>024-027-028-170500-
   Northwest Minnesota

CITY           SKY/WX    TMP DP  RH WIND       PRES   REMARKS
BEMIDJI        CLEAR     26  15  61 NE5       30.20R WCI  21
HALLOCK        CLOUDY    27  14  59 N13       30.31S WCI  16
ROSEAU         CLEAR     27  16  63 N6        30.29R WCI  20
WARROAD        CLEAR     27  10  50 N8        30.29S WCI  18
THIEF RVR FALL CLEAR     30   9  40 N10       30.27R WCI  21
CROOKSTON      CLEAR     30  14  51 NE9       30.28R WCI  22
FOSSTON        CLEAR     27  12  54 N9        30.23R WCI  17
DETROIT LAKES  CLEAR     28  21  74 CALM      30.20R
MOORHEAD       CLEAR     30  25  80 N7        30.22S WCI  23
PARK RAPIDS    CLEAR     26  19  74 NE7       30.18R WCI  18
$$
MNZ006-009>011-018-025>026-170500-
   North Central Minnesota

CITY           SKY/WX    TMP DP  RH WIND       PRES   REMARKS
BAUDETTE       PTCLDY    28   8  43 NE10      30.27R WCI  19
FLAG ISLAND    CLEAR     27   7  43 NE7       30.29S WCI  19
INTL FALLS     CLEAR     28   8  43 NE6       30.24R WCI  22
WASKISH        CLEAR     28   9  43 N7        30.23S WCI  21
BIG FORK       PTCLDY    27  18  69 E3        30.22S
LONGVILLE      MOCLDY    25  19  80 NE7       30.18S WCI  17
GRAND RAPIDS   CLOUDY    25  18  74 N7        30.18S WCI  17
CRANE LAKE     CLOUDY    23  12  63 CALM      30.27S
ORR            CLOUDY    25  16  68 CALM      30.21S
COOK           MOCLDY    25  19  80 E3        30.22S
$$
MNZ012-019>021-037-170500-
   Northeast Minnesota

CITY           SKY/WX    TMP DP  RH WIND       PRES   REMARKS
DULUTH         LGT SNOW  26  22  84 NE18G32   30.12F VSB 3/4 WCI  13
ELY            CLOUDY    23  18  80 NE6       30.21F WCI  16
HIBBING        CLOUDY    26  19  74 NE8       30.18F WCI  18
EVELETH        FLURRIES  27  21  80 NE9       30.19S WCI  17
DULUTH HARBOR  LGT SNOW  28  27  93 NE31G37   30.16F VSB 1   WCI  12
TWO HARBORS    LGT SNOW  27  21  80 NE17G24   30.14F WCI  14
SILVER BAY     LGT SNOW  25  25 100 NE12G25   30.18S WCI  14
GRAND MARAIS     N/A     28  23  81 NE13G23   30.27F WCI  17
G MARAIS ARPRT LGT SNOW  21  16  79 NE15      30.22S WCI   8
$$
MNZ029>031-032-039>041-046>048-054>057-064-170500-
   West Central Minnesota

CITY           SKY/WX    TMP DP  RH WIND       PRES   REMARKS
FERGUS FALLS   CLEAR     28  19  69 NE10      30.17R WCI  19
WHEATON        CLEAR     28  25  86 N6        30.20S WCI  22
MORRIS         CLEAR     28  21  74 NE21      30.14R WCI  15
ALEXANDRIA     CLOUDY    27  20  75 NE20G28   30.12S WCI  13
ELBOW LAKE     FAIR      28  21  76 NE10      30.16R WCI  18
WADENA         CLEAR     25  19  80 NE12      30.15S WCI  14
GLENWOOD       PTCLDY    27  21  80 N21       30.10S WCI  13
APPLETON       CLOUDY    30  25  80 N17G23    30.14R WCI  18
BENSON         CLOUDY    28  21  74 NE17G25   30.12R WCI  16
ORTONVILLE     PTCLDY    27  19  74 N14       30.16R WCI  15
MADISON        CLOUDY    34  27  75 N18       30.14R WCI  23
WILLMAR        CLOUDY    30  23  74 N23G29    30.08R WCI  17
$$
MNZ033>034-036-042>043-049>051-058-059-170500-
   Central Minnesota

CITY           SKY/WX    TMP DP  RH WIND       PRES   REMARKS
ST CLOUD       CLOUDY    29  23  78 N13G24    30.05R WCI  19
SAUK CENTRE    CLOUDY    27  21  77 N15G25    30.10R WCI  16
PAYNESVILLE    CLOUDY    28  23  82 N17G29    30.07R WCI  15
AITKIN         FLURRIES  28  21  74 N10G20    30.12S WCI  19
PINE RIVER     CLOUDY    27  21  80 NE12      30.19S WCI  16
BRAINERD       CLOUDY    31  21  66 NE15      30.14R WCI  20
STAPLES        CLOUDY    27  19  74 NE9G18    30.15R WCI  17
LONG PRAIRIE   CLOUDY    27  21  80 VRB15G22  30.10S WCI  15
LITTLE FALLS   CLOUDY    28  21  74 N13G20    30.10S WCI  18
LITCHFIELD     CLOUDY    28  27  93 N17G25    30.04R WCI  16
BUFFALO        LGT SNOW  29  26  88 N16G22    30.01R WCI  17
MAPLE LAKE     CLOUDY    30  27  90 N18G24    30.03R WCI  18
$$
MNZ037-044-045-052-053-170500-
   East Central Minnesota

CITY           SKY/WX    TMP DP  RH WIND       PRES   REMARKS
PRINCETON      LGT SNOW  28  25  86 N21       30.04S WCI  15
MORA           LGT SNOW  28  23  80 NE12G20   30.07S WCI  18
CAMBRIDGE      LGT SNOW  30  23  74 N12G18    30.01S WCI  21
RUSH CITY      LGT SNOW  28  26  94 N13G20    30.03S WCI  17
MOOSE LAKE     LGT SNOW  28  27  93 NE15G25   30.09R WCI  17
HINCKLEY       LGT SNOW  28  28 100 N16G24    30.06S WCI  17
CLOQUET        LGT SNOW  27  25  93 NE15G23   30.12S WCI  15
MCGREGOR       CLOUDY    27  25  93 NE12G20   30.14S WCI  16
$$
MNZ071>073-080-081-089-090-097-098-170500-
   Southwest Minnesota

CITY           SKY/WX    TMP DP  RH WIND       PRES   REMARKS
MONTEVIDEO     CLOUDY    28  25  86 NE20      30.12R WCI  15
GRANITE FALLS  CLOUDY    29  24  81 N21G26    30.10R WCI  16
CANBY          CLOUDY    30  25  83 N15       30.14R WCI  19
MARSHALL       CLOUDY    28  23  80 N22       30.08R WCI  15
REDWOOD FALLS  CLOUDY    29  25  85 N18G28    30.05R WCI  16
OLIVIA         CLOUDY    30  27  86 N16       30.04R WCI  19
PIPESTONE      CLOUDY    28  25  86 N15G24    30.06R WCI  17
WINDOM         MIX PCPN  28  27  93 N25G33    30.00R WCI  14
WORTHINGTON    CLOUDY    28  21  74 N23G31    30.04R WCI  14
JACKSON        CLOUDY    30  28  93 NW26G35   29.98R WCI  16
TRACY          CLOUDY    29  27  90 N21G26    30.06R WCI  16
SLAYTON        CLOUDY    28  26  94 N24G32    30.04R WCI  13
$$
MNZ065>067-074>077-082>085-091>093-170500-
   South Central Minnesota

CITY           SKY/WX    TMP DP  RH WIND       PRES   REMARKS
MANKATO        CLOUDY    32  30  93 N22       29.91R WCI  19
NEW ULM        CLOUDY    30  28  93 N14G22    29.98R WCI  20
ST JAMES       CLOUDY    32  28  86 NW25      29.98R WCI  19
FAIRMONT       CLOUDY    30  27  86 NW29G36   29.94R WCI  15
GLENCOE        CLOUDY    31  26  83 N16G24    29.97R WCI  20
FARIBAULT      RAIN      39  34  81 N14       29.87R
OWATONNA       RAIN      39  37  93 N15       29.84R
WASECA         LGT RAIN  37  36  93 N20       29.87R
ALBERT LEA     LGT RAIN  41  41 100 N10       29.80R
$$
MNZ078>079-086>088-094>096-170500-
   Southeast Minnesota

CITY           SKY/WX    TMP DP  RH WIND       PRES   REMARKS
ROCHESTER      CLOUDY    45  33  63 SE15      29.81F
RED WING       LGT RAIN  45  39  81 SE7       29.89S
STANTON        RAIN      41  39  93 N10       29.86R
DODGE CENTER   LGT RAIN  46  37  71 SE6       29.82F
WINONA         CLOUDY    52  30  43 SE13G20   29.87F
AUSTIN         LGT RAIN  45  36  70 SE9       29.78S
PRESTON        CLOUDY    48  31  51 SE16G24   29.82S
$$
ABBREVIATIONS USED IN REMARKS
   TC - TEMPERATURES IN CELSIUS
  WCI - WIND CHILL INDEX
   HX - HEAT INDEX
  VSB - VISIBILITY
$$


USA.gov is the U.S. government's official web portal to all federal, state and local government web resources and services.